sat.trackr.live / text

‹ back to catalog

STARLINK-33731

NORAD 63475 · 2025-070R

PAYLOAD ACTIVE UNKNOWN

§ Identity

Operator
Country
US
Launch date
2025-04-06
Launch site
AFETR
Launch vehicle
Mass (kg)
RCS (m²)

Purposes: comms

External: N2YO · Heavens-Above · Gunter

§ Orbital elements

Epoch: 2026-05-24T19:28:29.631648Z

Period
94.27 min
Inclination
42.9982°
Eccentricity
0.0001366
Mean motion
15.27580002 rev/d
Perigee alt
482.1 km
Apogee alt
484.0 km
Semi-major
6,861.2 km
B*
4.6986e-4
RAAN
190.3023°
Arg perigee
275.5207°
Mean anomaly
84.5489°
Rev number
6,461

§ Raw data

STARLINK-337311 63475U 25070R   26144.81145407  .00012690  00000+0  46986-3 0  99992 63475  42.9982 190.3023 0001366 275.5207  84.5489 15.27580002 64618

JSON: /api/v1/satellites/63475 · /tle

For live sub-satellite position, see the globe view (requires WebGL).

§ Visibility from observer

Set your observer location to see the next 7 days of passes ≥ 10°. The values pass through the URL so the page stays shareable.

No JS? Fill the form by hand. The geolocation button needs JavaScript.